Location: L�beck
(53.8752°N, 10.6787°E)
Time: 11:00:04
(UTC+01:00)

Envisat - Visible Passes

Search period start: 20 February 2018 00:00
Search period end: 02 March 2018 00:00
Orbit: 764 x 766 km, 98.2° (Epoch: 19 February)

Date Brightness Start Highest point End Pass type
(mag) Time Alt. Az. Time Alt. Az. Time Alt. Az.
20 Feb 3.2 18:54:29 10° SE 18:59:23 51° ENE 19:04:19 10° N visible
20 Feb 4.8 20:34:12 10° SSW 20:38:40 30° W 20:43:08 10° NNW visible
21 Feb 3.9 18:18:36 10° ESE 18:22:55 29° ENE 18:27:15 10° N visible
21 Feb 3.6 19:56:42 10° S 20:01:41 57° W 20:06:43 10° NNW visible
22 Feb 2.9 19:19:50 10° SSE 19:24:54 78° ENE 19:30:01 10° NNW visible
22 Feb 5.4 21:00:54 10° SW 21:04:33 20° W 21:08:12 10° NW visible
23 Feb 3.4 18:43:32 10° SE 18:48:19 43° ENE 18:53:07 10° N visible
23 Feb 4.5 20:22:46 10° SSW 20:27:26 36° W 20:32:08 10° NNW visible
24 Feb 3.3 19:45:27 10° S 19:50:31 69° WSW 19:55:37 10° NNW visible
24 Feb 5.9 21:28:29 10° WSW 21:30:32 12° W 21:32:34 10° WNW visible
25 Feb 3.0 19:08:46 10° SSE 19:13:47 65° ENE 19:18:51 10° N visible
25 Feb 5.2 20:49:14 10° SW 20:53:16 23° W 20:57:20 10° NW visible
26 Feb 3.6 18:32:38 10° SE 18:37:15 36° ENE 18:41:52 10° N visible
26 Feb 4.1 20:11:23 10° S 20:16:13 43° W 20:21:06 10° NNW visible
27 Feb 3.0 19:34:16 10° SSE 19:39:22 82° WSW 19:44:29 10° NNW visible
27 Feb 5.8 21:16:20 10° WSW 21:19:12 15° W 21:22:07 10° NW visible
28 Feb 3.1 18:57:45 10° SE 19:02:41 54° ENE 19:07:39 10° N visible
28 Feb 4.9 20:37:40 10° SSW 20:42:01 28° W 20:46:23 10° NNW visible
01 Mar 3.8 18:21:47 10° ESE 18:26:12 31° ENE 18:30:37 10° N visible
01 Mar 3.8 20:00:04 10° S 20:05:01 52° W 20:10:01 10° NNW visible
